[[{"header":{"parameterUnit":"m.s-1","parameterCategory":1,"la1":30.2992,"la2":30.254,"lo1":-89.0895,"lo2":-89.0443,"dy":0.0025,"dx":0.0025,"nx":19,"ny":19,"refTime":"2026-04-29T21:00:00:Z","depth":0,"parameterNumber":2,"parameterNumberName":"U-component_of_WINDS"},"data":[0,0,0,1.6252,1.6253,1.6285,1.6285,1.6353,1.6354,0,0,0,0,0,0,0,0,0,0,0,1.6256,1.6257,1.6252,1.6253,1.6285,1.6285,1.6353,1.6354,0,0,0,0,0,0,0,0,0,0,0,1.6255,1.6256,1.6257,1.6254,1.6285,1.6285,1.6353,1.632,0,0,0,0,0,0,0,0,0,0,1.6285,1.6299,1.6256,1.6257,1.6254,1.6285,1.6285,1.6318,1.6322,1.6349,0,1.6374,0,1.6365,1.636,1.636,0,0,0,1.6245,1.6296,1.6293,1.6258,1.6254,1.6285,1.6268,1.632,1.6324,1.6355,1.6374,1.6376,1.6366,1.636,1.6361,1.654,1.6542,0,0,1.6243,1.6269,1.629,1.6296,1.6289,1.6267,1.6269,1.6322,1.6347,1.6374,1.6377,1.6367,1.6361,1.6362,1.6539,1.6541,0,0,0,1.6244,1.6268,1.6263,1.6294,1.6298,1.6269,1.6271,1.6344,1.634,1.6378,1.6368,1.6361,1.6363,1.6538,1.654,1.6627,0,0,0,1.6242,1.6269,1.6263,1.6279,1.6297,1.6321,1.6292,1.6337,1.6342,1.6367,1.6362,1.6363,1.6536,1.6539,1.6621,1.6664,0,0,0,1.6249,1.6269,1.6278,1.6281,1.6295,1.6319,1.6318,1.6337,1.6336,1.636,1.6364,1.6535,1.6538,1.6616,1.6656,1.672,0,0,0,1.6265,1.6355,1.628,1.6377,1.6295,1.6372,1.6317,1.6374,1.6405,1.6362,1.6537,1.654,1.6615,1.6651,1.6715,1.6779,1.6807,0,0,1.6394,1.6372,1.6427,1.636,1.6457,1.6365,1.6475,1.648,1.646,1.6516,1.652,1.6623,1.6655,1.6719,1.6957,1.698,0,0,0,1.6477,1.6517,1.6537,1.6566,1.657,1.6579,1.6563,1.6566,1.6611,1.6492,1.6662,1.6681,1.6717,1.6746,1.6766,1.6796,1.6554,1.6554,1.6553,1.6697,1.6664,1.6754,1.6726,1.6756,1.674,1.6762,1.6763,1.6722,1.6763,1.678,1.6928,1.6963,1.6978,1.701,1.681,1.681,1.6811,1.6811,1.6883,1.6935,1.6879,1.6946,1.6913,1.697,1.6959,1.6929,1.698,1.6912,1.6943,1.6873,1.7004,1.7031,1.6817,1.6816,1.6815,1.6815,1.6814,1.7024,1.7044,1.7043,1.7084,1.712,1.709,1.7141,1.7109,1.708,1.711,1.7125,1.7124,1.7119,1.7119,1.7119,1.712,1.712,1.7121,1.7121,1.7171,1.7168,1.7213,1.7227,1.7242,1.726,1.7246,1.7261,1.7271,1.7245,1.7244,1.7202,1.7022,1.6978,1.7129,1.7128,1.7127,1.7126,1.7125,1.7374,1.7323,1.7393,1.7409,1.7423,1.7463,1.7421,1.7457,1.7465,1.7492,1.7443,1.7315,1.7291,1.7275,1.7239,1.7448,1.7448,1.7448,1.7448,1.7494,1.7478,1.7543,1.7571,1.7595,1.7565,1.765,1.7641,1.7625,1.7629,1.7594,1.7543,1.7528,1.7513,1.7492,1.7458,1.7719,1.7719,1.7719,1.7618,1.7603,1.7679,1.766,1.7669,1.7679,1.7758,1.7796,1.7767,1.7729,1.7633,1.7621,1.7538,1.7512,1.7473,1.7441,1.7377,0,0]},{"header":{"parameterUnit":"m.s-1","parameterCategory":1,"la1":30.2992,"la2":30.254,"lo1":-89.0895,"lo2":-89.0443,"dy":0.0025,"dx":0.0025,"nx":19,"ny":19,"refTime":"2026-04-29T21:00:00:Z","depth":0,"parameterNumber":3,"parameterNumberName":"V-component_of_WINDS"},"data":[0,0,0,0.8678,0.8676,0.858,0.8579,0.8472,0.8472,0,0,0,0,0,0,0,0,0,0,0,0.8717,0.8717,0.8678,0.8676,0.858,0.8579,0.8473,0.8472,0,0,0,0,0,0,0,0,0,0,0,0.8717,0.8717,0.8717,0.8675,0.858,0.8579,0.8473,0.8539,0,0,0,0,0,0,0,0,0,0,0.863,0.8677,0.8717,0.8717,0.8675,0.858,0.8579,0.8542,0.8535,0.8523,0,0.8517,0,0.8493,0.8466,0.8465,0,0,0,0.8667,0.8683,0.8647,0.8716,0.8674,0.858,0.8621,0.8538,0.853,0.8514,0.8515,0.8511,0.8491,0.8465,0.8465,0.8429,0.843,0,0,0.8672,0.8705,0.8653,0.8643,0.866,0.8624,0.8618,0.8533,0.8536,0.8515,0.8508,0.8489,0.8464,0.8464,0.8429,0.843,0,0,0,0.8693,0.871,0.8675,0.8648,0.8629,0.8621,0.8614,0.8539,0.8526,0.8507,0.8488,0.8464,0.8463,0.8429,0.8429,0.8475,0,0,0,0.8696,0.8722,0.8678,0.8698,0.8631,0.8584,0.8623,0.8532,0.8521,0.8489,0.8464,0.8462,0.8429,0.8429,0.8473,0.8491,0,0,0,0.872,0.8724,0.8714,0.87,0.866,0.8584,0.8565,0.8529,0.851,0.8465,0.8462,0.8428,0.8429,0.8471,0.8488,0.8492,0,0,0,0.8754,0.8755,0.8716,0.871,0.8661,0.8614,0.8565,0.8528,0.8495,0.8463,0.8429,0.8429,0.8471,0.8486,0.8491,0.8503,0.8511,0,0,0.8774,0.8759,0.8752,0.8714,0.8683,0.8625,0.86,0.8537,0.8501,0.8455,0.8454,0.8474,0.8488,0.8492,0.8542,0.8549,0,0,0,0.877,0.8766,0.875,0.8722,0.8675,0.8636,0.8574,0.8551,0.8511,0.8485,0.8475,0.8482,0.8483,0.8487,0.8493,0.8492,0.8432,0.8432,0.8432,0.8846,0.8802,0.8789,0.8734,0.8706,0.8643,0.8616,0.8573,0.8535,0.8534,0.852,0.8556,0.8562,0.8566,0.8566,0.8522,0.8522,0.8522,0.8523,0.8872,0.886,0.8811,0.8781,0.8734,0.8708,0.8647,0.8621,0.8589,0.8563,0.8561,0.8537,0.8575,0.8572,0.8525,0.8525,0.8525,0.8524,0.8524,0.8917,0.8904,0.8877,0.8831,0.88,0.8743,0.8716,0.8673,0.8632,0.8631,0.8613,0.8612,0.8606,0.8625,0.8625,0.8625,0.8626,0.8626,0.8626,0.8976,0.8944,0.8926,0.8878,0.8854,0.8817,0.8754,0.8729,0.869,0.8661,0.8661,0.8624,0.8587,0.8579,0.8627,0.8627,0.8627,0.8627,0.8627,0.902,0.9003,0.8977,0.8954,0.8893,0.8866,0.8812,0.8765,0.8738,0.8726,0.8689,0.8668,0.8649,0.8644,0.8638,0.8698,0.8698,0.8698,0.8698,0.9059,0.9046,0.901,0.8975,0.8936,0.8885,0.8856,0.8807,0.8753,0.8734,0.8718,0.8706,0.8703,0.8685,0.8679,0.8673,0.874,0.874,0.874,0.9084,0.9065,0.905,0.8999,0.8948,0.8906,0.8878,0.8839,0.8774,0.8741,0.8717,0.8716,0.8694,0.869,0.8658,0.865,0.8636,0,0]}]]